Regional Weather Roundup
Issued by NWS Upton, NY

Home | Current Version | Previous Version | Text Only | Print | Product List | Glossary On
Versions: 1 2 3 4 5 6 7 8 9 10 11 12 13 14 15 16 17 18 19 20 21 22 23 24 25 26 27 28 29 30 31 32 33 34 35 36 37 38 39 40 41 42 43 44 45 46 47 48 49 50
000
ASUS41 KOKX 232005
RWROKX

REGIONAL WEATHER ROUNDUP
NATIONAL WEATHER SERVICE NEW YORK NY
400 PM EDT TUE SEP 23 2014

NOTE: "FAIR" INDICATES FEW OR NO CLOUDS BELOW 12,000 FEET WITH NO
SIGNIFICANT WEATHER AND/OR OBSTRUCTIONS TO VISIBILITY.

NYZ071-072-176-178-NJZ106-104-232100-
NEW YORK CITY METRO AREA


CITY           SKY/WX    TMP DP  RH WIND       PRES   REMARKS
CENTRAL PARK   SUNNY     70  40  33 CALM      30.33F
LAGUARDIA APRT PTSUNNY   71  42  35 NW5       30.30F
KENNEDY INTL   PTSUNNY   68  46  45 S12       30.32F
NEWARK/LIBERTY MOSUNNY   72  41  32 VRB7      30.30F
BRNX BOT. GARD   N/A     72  41  33 NW6       30.33R
TETERBORO      SUNNY     74  41  30 VRB5      30.29F
$$

NYZ177-179-078>081-232100-
LONG ISLAND NEW YORK

CITY           SKY/WX    TMP DP  RH WIND       PRES   REMARKS
FARMINGDALE    SUNNY     68  47  46 SW8       30.31F
ISLIP          MOSUNNY   67  48  50 SW9       30.30F
SHIRLEY        SUNNY     67  48  50 VRB5      30.32S
WESTHAMPTON    SUNNY     67  46  47 S9        30.33
MONTAUK POINT    N/A     65  47  52 VRB3      30.33S
$$

NYZ052-065-067-232100-
HUDSON VALLEY

CITY           SKY/WX    TMP DP  RH WIND       PRES   REMARKS
WHITE PLAINS   SUNNY     70  41  34 NW3       30.30F
NEWBURGH       SUNNY     70  46  43 CALM      30.31F
MONTGOMERY     SUNNY     72  44  36 SW6       30.29F
POUGHKEEPSIE   SUNNY     72  43  35 MISG      30.29F
ALBANY         MOSUNNY   69  49  48 W9        30.31S
$$

NJZ001-105-106-008-010-013-015-019>022-104-232100-
NEW JERSEY

CITY           SKY/WX    TMP DP  RH WIND       PRES   REMARKS
NEWARK/LIBERTY MOSUNNY   72  41  32 VRB7      30.30F
TETERBORO      SUNNY     74  41  30 VRB5      30.29F
CALDWELL       SUNNY     71  43  36 CALM      30.30F
MORRISTOWN     SUNNY     72  43  35 S3        30.30F
SOMERVILLE     SUNNY     73  42  32 VRB3      30.29F
LINDEN         FAIR      76  44  31 W6        30.33S
SUSSEX         SUNNY     73  45  36 VRB6      30.31S
ANDOVER          N/A     71  43  36 VRB3      30.31F
TRENTON        SUNNY     70  43  37 SW8       30.31F
MILLVILLE      PTSUNNY   66  47  50 E6        30.31F
ATLANTIC CITY  PTSUNNY   65  49  56 E6        30.32F
WRIGHTSTOWN    MOSUNNY   69  45  42 E5        30.29F
TOMS RIVER     MOSUNNY   70  46  43 CALM      30.32S
BELMAR         SUNNY     70  46  43 CALM      30.32S
$$

PAZ047>061-062-071-232100-
EASTERN PENNSYLVANIA

CITY           SKY/WX    TMP DP  RH WIND       PRES   REMARKS
PHILADELPHIA   PTSUNNY   71  42  35 SE6       30.32F
ALLENTOWN      SUNNY     71  41  33 W3        30.32S
SCRANTON       SUNNY     69  46  43 VRB6      30.33F
$$

CTZ002-004>006-009-010-012-RIZ004-006-007-MAZ004-011-015-232100-
SOUTHERN NEW ENGLAND
 IN CT

CITY           SKY/WX    TMP DP  RH WIND       PRES   REMARKS
BRADLEY INTL   MOSUNNY   72  44  36 W12       30.29R
HARTFORD       SUNNY     71  44  37 SW10G16   30.29S
DANBURY        SUNNY     69  45  41 VRB6      30.32S
WTRBRY/OXFORD  MOSUNNY   66  45  45 W3        30.32
BRIDGEPORT     SUNNY     69  47  45 SW12      30.31S
MERIDEN        SUNNY     71  44  37 VRB6      30.30S
NEW HAVEN      MOSUNNY   67  49  52 S10       30.32R
CHESTER        FAIR      64  48  55 S8        30.32S
GROTON         SUNNY     64  45  49 SW10      30.31R
WILLIMANTIC    SUNNY     69  43  38 W5        30.30S

 IN RI

CITY           SKY/WX    TMP DP  RH WIND       PRES   REMARKS
PROVIDENCE     MOSUNNY   67  46  47 SE12      30.29S
BLOCK ISLAND   SUNNY     64  43  45 W9        30.32S
WESTERLY       SUNNY     65  43  44 SW10G17   30.32R

 IN MA

CITY           SKY/WX    TMP DP  RH WIND       PRES   REMARKS
BOSTON         MOSUNNY   71  42  35 W8        30.26S
WORCESTER      SUNNY     65  44  46 NW10      30.29S
WESTFIELD      SUNNY     71  45  39 NW10      30.28S
PROVINCETOWN   SUNNY     63  43  48 S8        30.29R
NANTUCKET      MOSUNNY   64  41  42 NW7       30.30S
$$

ANZ330-335-338-340-345-350-353-355-232100-
COASTAL MARINE OBSERVATIONS


STATION/POSITION TIME  SKY/WX   TEMP    WIND        PRES    VSBY  WAVE
                                AIR SEA DIR/SP/G                  HT/PER
                 (UTC)          (F)     (DEG/KT/KT) (MB)    (MI)  (FT/S)
NY HARB ENTRANCE 2000            62 71  170/  2/  4 1027.2          2/ 9
4S FIRE IS       2000               70                N/A           2/ 8
20S FIRE ISLAND  2000            61 68  320/  6/  6 1027.0          2/ 9
23SW MTP         2000                                 N/A           2/ 8
HUDSON CANYON    2000            62 71   20/  6/  8 1026.5          3/ 8
EXECUTION ROCKS  2000            69 70  210/  4/  6   N/A
WESTERN LI SOUND 2000            67     210/  6/  8   N/A           0
CENTRAL LI SOUND 1900            62 70  210/  8/ 10   N/A           1
EASTERN LI SOUND 1900            63 67  240/ 10/ 14   N/A
ROBBINS REEF     2000            65     150/ 12/ 13 1025.1
$$


>>>>>>>>>>>>>>>>>>>>>>>>>>>> KEY <<<<<<<<<<<<<<<<<<<<<<<<<<<
>                                                          <
>     SKY/WX - SKY CONDITION/PRESENT WEATHER               <
>     TMP    - TEMPERATURE IN FAHRENHEIT                   <
>     DP     - DEWPOINT IN FAHRENHEIT                      <
>     RH     - RELATIVE HUMIDITY IN PERCENT                <
>     WIND   - DIRECTION AND SPEED IN MPH                  <
>     PRES   - MEAN SEA LEVEL PRESSURE IN INCHES OF HG     <
>     WCI    - WIND CHILL INDEX                            <
>     VSB    - VISIBILITY IN MILES                         <
>     HX     - HEAT INDEX                                  <
>     TC     - TEMPERATURE IN CELSIUS                      <
>     VRB    - VARIABLE WIND DIRECTION                     <
>                                                          <
>>>>>>>>>>>>>>>>>>>>>>>>>>>> KEY <<<<<<<<<<<<<<<<<<<<<<<<<<<





USA.gov is the U.S. government's official web portal to all federal, state and local government web resources and services.